Terminal Aerodrome Forecast
Issued by NWS Salt Lake City, UT

Home | Current Version | Previous Version | Text Only | Print | Product List | Glossary On
Versions: 1 2 3 4 5 6 7 8 9 10 11 12 13 14 15 16 17 18 19 20 21 22 23 24 25 26 27 28 29
000
FTUS45 KSLC 250703 AAA
TAFCDC
TAF AMD
KCDC 250703Z 2507/2606 24020G38KT P6SM SCT120 OVC200
     FM250800 22012KT P6SM VCSH SCT030 BKN050
     FM251200 34010KT 1/2SM SN FZFG BKN005 OVC020
     FM251600 36010KT 3/4SM -SN BR BKN008
     FM260000 36007KT 3SM -SHSN SCT008 BKN025=

USA.gov is the U.S. government's official web portal to all federal, state and local government web resources and services.